SCOUT X-4 R/B, 871

Orbit data source: Space-Track

SCOUT X-4 R/B, 871 is space debris in LEO originally from a launch on Tue, 25 Aug 1964 UTC launched from the Air Force Western Test Range (AFWTR). Debris objects in space refer to the collection of defunct objects orbiting the Earth. Examples of debris include non-operational satellites, rocket bodies, and fragments generated from explosions, collisions, or faulty payload assembly.

Loading next visibility...
Identifier
871, 1964-051B
Orbit
LEO
Country
Flag of USUS
Related business
Manufacturer
ABL
Mission
Spacecraft
Bus & Motor
ALTAIR, Unknown motor
Mass
33 kg wet, 33 kg dry
Launch date (UTC)
1964-08-25 (61 years ago)
Launch vehicle
Unknown
Launch site
Air Force Western Test Range (AFWTR)
Object type
Payload
Rocket body
Debris
Shape & HBR
Unknown
Radar Cross Section
Medium (>0.1 m² and <1 m²)

Expand to show TLE details & history
Last TLE update: 6 hours ago

TLE from 6 hours ago
0 SCOUT X-4 R/B
1 00871U 64051B   26036.95959031  .00000407  00000-0  25923-3 0  9995
2 00871  79.8916 212.8025 0086498 135.8184 224.9929 14.00629449126491
Epoch: 2026-02-05T23:01Z
TLE epoch observation values (Epoch: 2026-02-05T23:01:48.602Z)
Latitude
-0.00001°
Longitude
91.24566°
Altitude
939.205 km
Speed
7.359 km/s
True Right ascension
14h 11m 12s
True Declination
0° 00' 00"
Sunlit
Object was in daylight at epoch
Visualization orbit readout
Latitude
Unknown
Longitude
Unknown
Altitude
Unknown
Speed
Unknown
Apparent Right ascension
Unknown
Apparent Declination
Unknown
Sunlit
N/A
Visualization observer readout
Local Sidereal Time
07:24:35
Azimuth
Unknown
Elevation
Unknown
Doppler factor
Unknown
Orbital elements
Apogee altitude
951.73 km
Perigee altitude
826.014 km
Semi-major axis
7,267.009 km
Eccentricity
0.00865
Inclination
79.8916°
RAAN
212.8025°
Arg. of periapsis
135.8184°
True anomaly
224.29744°
Mean anomaly
224.9929°
Eccentric anomaly
224.64464°
Mean motion
3.50356 °/min
Orbital period
102.75 mins
BSTAR
0.00025923
Loading maneuver chart data...
Computing Atmospheric mass density...
Loading historical data...
Loading historical data...
Loading historical data...
Loading historical data...
Loading historical data...
Loading historical data...
Loading historical data...

Documentation

Showing up to 5 results
|